Change the Weather History Date:

Monday, August 19, 2013

  Actual Average (KDSM) Record (KDSM)
Temperature  
Mean Temperature 70 °F 74 °F  
Max Temperature 84 °F 84 °F 101 °F (1983)
Min Temperature 57 °F 65 °F 49 °F (1950)
Degree Days  
Heating Degree Days 0 0  
Month to date heating degree days 0  
Since 1 June heating degree days 18  
Since 1 July heating degree days 1  
Cooling Degree Days 6 9  
Month to date cooling degree days 195  
Year to date cooling degree days 841  
Since 1 June cooling degree days 765  
Growing Degree Days 20 (Base 50)    
Moisture  
Dew Point 61 °F    
Average Humidity 73    
Maximum Humidity 100    
Minimum Humidity 45    
Precipitation  
Precipitation 0.09 in 0.14 in 1.03 in (1979)
Month to date precipitation 2.60  
Year to date precipitation 25.19  
Snow  
Snow 0.00 in 0.00 in - ()
Month to date snowfall 0.0  
Since 1 June snowfall 0.0  
Since 1 July snowfall 0.0  
Snow Depth -    
Sea Level Pressure  
Sea Level Pressure 30.05 in    
Wind  
Wind Speed 4 mph (South)    
Max Wind Speed 15 mph    
Max Gust Speed 23 mph    
Visibility 10 miles    
Events      
T = Trace of Precipitation, MM = Missing Value Source: NWS Daily Summary

Daily Weather History Graph

Daily Weather History Graph

Search for Another Location

Airport or City:

Trip Planner

Search our weather history database for the weather conditions in past years. The results will help you decide how hot, cold, wet, or windy it might be!

Date:

Astronomy

Aug. 19, 2013 Rise Set
Actual Time 6:27 AM CDT 8:07 PM CDT
Civil Twilight 5:57 AM CDT 8:37 PM CDT
Nautical Twilight 5:21 AM CDT 9:12 PM CDT
Astronomical Twilight 4:43 AM CDT 9:50 PM CDT
Moon 6:59 PM CDT (8/19) 4:46 AM CDT (8/19)
Length of Visible Light 14h 39m
Length of Day
13h 40m
Waxing Gibbous, 97% of the Moon is Illuminated
Aug 19
Waxing Gibbous
Aug 20
Full
Aug 28
Last Quarter
Sep 5
New
Sep 12
First Quarter

Hourly Weather History & Observations

Time (CDT) Temp. Heat Index Dew Point Humidity Pressure Visibility Wind Dir Wind Speed Gust Speed Precip Events Conditions
12:15 AM 59.0 °F - 57.2 °F 94% 30.10 in 10.0 mi Calm Calm - N/A   Mostly Cloudy
12:35 AM 60.8 °F - 57.2 °F 88% 30.10 in 10.0 mi Calm Calm - N/A   Scattered Clouds
12:55 AM 59.0 °F - 57.2 °F 94% 30.10 in 10.0 mi Calm Calm - N/A   Scattered Clouds
1:15 AM 59.0 °F - 57.2 °F 94% 30.10 in 10.0 mi Calm Calm - N/A   Mostly Cloudy
1:35 AM 59.0 °F - 57.2 °F 94% 30.10 in 10.0 mi Calm Calm - N/A   Overcast
1:55 AM 60.8 °F - 57.2 °F 88% 30.09 in - Calm Calm - N/A   Mostly Cloudy
2:15 AM 59.0 °F - 57.2 °F 94% 30.09 in 10.0 mi Calm Calm - N/A   Mostly Cloudy
2:35 AM 59.0 °F - 57.2 °F 94% 30.08 in 10.0 mi Calm Calm - N/A   Clear
2:55 AM 59.0 °F - 57.2 °F 94% 30.08 in 10.0 mi Calm Calm - N/A   Clear
3:15 AM 57.2 °F - 57.2 °F 100% 30.08 in 6.0 mi Calm Calm - N/A   Clear
3:35 AM 57.2 °F - 55.4 °F 94% 30.08 in 9.0 mi Calm Calm - N/A   Clear
3:55 AM 59.0 °F - 57.2 °F 94% 30.08 in 8.0 mi Calm Calm - N/A   Mostly Cloudy
4:15 AM 57.2 °F - 57.2 °F 100% 30.09 in 3.0 mi Calm Calm - N/A   Mostly Cloudy
4:35 AM 57.2 °F - 57.2 °F 100% 30.09 in 10.0 mi Calm Calm - N/A   Overcast
4:55 AM 59.0 °F - 57.2 °F 94% 30.09 in 10.0 mi Calm Calm - N/A   Overcast
5:15 AM 60.8 °F - 59.0 °F 94% 30.09 in 10.0 mi Calm Calm - N/A   Overcast
5:35 AM 60.8 °F - 59.0 °F 94% 30.09 in 10.0 mi SSE 3.5 mph - N/A   Overcast
5:55 AM 59.0 °F - 57.2 °F 94% 30.09 in 10.0 mi Calm Calm - N/A   Scattered Clouds
6:15 AM 59.0 °F - 57.2 °F 94% 30.08 in 10.0 mi SSE 3.5 mph - N/A   Clear
6:35 AM 59.0 °F - 57.2 °F 94% 30.08 in 9.0 mi SSE 3.5 mph - N/A   Clear
6:55 AM 60.8 °F - 59.0 °F 94% 30.08 in 9.0 mi SSE 5.8 mph - N/A   Clear
7:15 AM 60.8 °F - 59.0 °F 94% 30.08 in 9.0 mi SSE 4.6 mph - N/A   Clear
7:35 AM 62.6 °F - 60.8 °F 94% 30.08 in 9.0 mi SSE 3.5 mph - N/A   Clear
7:55 AM 64.4 °F - 60.8 °F 88% 30.08 in 9.0 mi SE 4.6 mph - N/A   Clear
8:15 AM 66.2 °F - 60.8 °F 83% 30.09 in 9.0 mi Calm Calm - N/A   Clear
8:35 AM 66.2 °F - 62.6 °F 88% 30.10 in 9.0 mi Calm Calm - N/A   Clear
8:55 AM 68.0 °F - 62.6 °F 83% 30.10 in 9.0 mi SSE 5.8 mph - N/A   Clear
9:15 AM 69.8 °F - 62.6 °F 78% 30.10 in 9.0 mi SSE 4.6 mph - N/A   Clear
9:35 AM 71.6 °F - 62.6 °F 73% 30.10 in 9.0 mi SSW 6.9 mph - N/A   Clear
9:55 AM 75.2 °F - 62.6 °F 65% 30.09 in 10.0 mi SSW 10.4 mph - N/A   Clear
10:15 AM 75.2 °F - 62.6 °F 65% 30.09 in 10.0 mi South 11.5 mph - N/A   Clear
10:35 AM 75.2 °F - 62.6 °F 65% 30.09 in 10.0 mi SSW 9.2 mph 16.1 mph N/A   Clear
10:55 AM 75.2 °F - 62.6 °F 65% 30.09 in 10.0 mi SSW 9.2 mph 16.1 mph N/A   Clear
11:15 AM 77.0 °F - 64.4 °F 65% 30.08 in 10.0 mi South 12.7 mph - N/A   Clear
11:35 AM 77.0 °F - 62.6 °F 61% 30.08 in 10.0 mi South 13.8 mph - N/A   Clear
11:55 AM 78.8 °F - 62.6 °F 57% 30.08 in 10.0 mi South 10.4 mph 17.3 mph N/A   Clear
12:15 PM 78.8 °F - 62.6 °F 57% 30.08 in 10.0 mi South 12.7 mph 19.6 mph N/A   Clear
12:35 PM 78.8 °F - 62.6 °F 57% 30.07 in 10.0 mi SSW 11.5 mph 19.6 mph N/A   Clear
12:55 PM 80.6 °F 81.8 °F 62.6 °F 54% 30.06 in 10.0 mi South 12.7 mph - N/A   Clear
1:15 PM 82.4 °F 83.4 °F 62.6 °F 51% 30.05 in 10.0 mi SSW 13.8 mph 21.9 mph N/A   Clear
1:35 PM 82.4 °F 83.4 °F 62.6 °F 51% 30.05 in 10.0 mi South 10.4 mph 19.6 mph N/A   Clear
1:55 PM 82.4 °F 83.9 °F 64.4 °F 54% 30.05 in 10.0 mi SSW 11.5 mph 19.6 mph N/A   Clear
2:15 PM 82.4 °F 83.4 °F 62.6 °F 51% 30.04 in 10.0 mi SSE 10.4 mph 18.4 mph N/A   Partly Cloudy
2:35 PM 82.4 °F 83.4 °F 62.6 °F 51% 30.03 in 10.0 mi South 13.8 mph 23.0 mph N/A   Mostly Cloudy
2:55 PM 84.2 °F 85.0 °F 62.6 °F 48% 30.03 in 10.0 mi South 12.7 mph 21.9 mph N/A   Scattered Clouds
3:15 PM 84.2 °F 84.4 °F 60.8 °F 45% 30.02 in 10.0 mi SSW 15.0 mph - N/A   Scattered Clouds
3:35 PM 84.2 °F 85.0 °F 62.6 °F 48% 30.02 in - South 13.8 mph - N/A   Unknown
3:55 PM 84.2 °F 85.0 °F 62.6 °F 48% 30.01 in - SSW 11.5 mph 17.3 mph N/A   Unknown
4:15 PM 84.2 °F 85.0 °F 62.6 °F 48% 30.01 in 5.0 mi South 13.8 mph - N/A   Haze
4:35 PM 84.2 °F 85.0 °F 62.6 °F 48% 30.01 in 10.0 mi South 9.2 mph - N/A   Mostly Cloudy
4:55 PM 84.2 °F 85.0 °F 62.6 °F 48% 30.00 in 10.0 mi South 15.0 mph - 0.09 in   Mostly Cloudy
5:15 PM 84.2 °F 85.0 °F 62.6 °F 48% 30.00 in 10.0 mi South 10.4 mph 17.3 mph N/A   Mostly Cloudy
5:35 PM 84.2 °F 85.0 °F 62.6 °F 48% 30.00 in 10.0 mi South 10.4 mph - N/A   Mostly Cloudy
5:55 PM 82.4 °F 83.4 °F 62.6 °F 51% 30.00 in 10.0 mi SSE 10.4 mph - N/A   Overcast
6:15 PM 82.4 °F 83.4 °F 62.6 °F 51% 30.00 in 10.0 mi South 6.9 mph - N/A   Overcast
6:35 PM 80.6 °F 82.3 °F 64.4 °F 58% 29.99 in 10.0 mi Variable 5.8 mph - N/A   Mostly Cloudy
6:55 PM 80.6 °F 81.8 °F 62.6 °F 54% 29.99 in 10.0 mi South 8.1 mph - N/A   Mostly Cloudy
7:15 PM 80.6 °F 81.8 °F 62.6 °F 54% 29.99 in 10.0 mi SSE 5.8 mph - N/A   Scattered Clouds
7:35 PM 78.8 °F - 64.4 °F 61% 29.99 in 10.0 mi SSE 5.8 mph - N/A   Partly Cloudy
7:55 PM 77.0 °F - 64.4 °F 65% 29.99 in 10.0 mi SSE 5.8 mph - N/A   Clear
8:15 PM 75.2 °F - 64.4 °F 69% 29.99 in 10.0 mi South 4.6 mph - N/A   Clear
8:35 PM 73.4 °F - 64.4 °F 73% 29.99 in 10.0 mi SSE 4.6 mph - N/A   Clear
8:55 PM 73.4 °F - 64.4 °F 73% 29.99 in 10.0 mi SSE 4.6 mph - N/A   Clear
9:15 PM 73.4 °F - 64.4 °F 73% 29.99 in 10.0 mi South 4.6 mph - N/A   Clear
9:35 PM 71.6 °F - 64.4 °F 78% 30.00 in 10.0 mi SSE 3.5 mph - N/A   Clear
9:55 PM 71.6 °F - 64.4 °F 78% 30.00 in 10.0 mi South 4.6 mph - N/A   Clear
10:15 PM 69.8 °F - 62.6 °F 78% 30.00 in 10.0 mi Calm Calm - N/A   Clear
10:35 PM 69.8 °F - 62.6 °F 78% 30.00 in 10.0 mi SSE 4.6 mph - N/A   Clear
10:55 PM 69.8 °F - 62.6 °F 78% 30.00 in 10.0 mi South 3.5 mph - N/A   Clear
11:15 PM 73.4 °F - 62.6 °F 69% 30.00 in 10.0 mi South 6.9 mph - N/A   Clear
11:35 PM 73.4 °F - 60.8 °F 65% 30.00 in 10.0 mi South 5.8 mph - N/A   Clear
11:55 PM 73.4 °F - 60.8 °F 65% 30.00 in 10.0 mi South 5.8 mph - N/A   Clear